Flag for United Kingdom Weather past 2 weeks in Londonderry, Northern Ireland, United Kingdom

Now
39 °F

Chilly.


Feels Like: 39 °F
Forecast: 39 / 56 °F
Wind: 1 mph from Southeast

Location: Castlederg

Current Time: Apr 19, 2015 at 9:36:30 AM

Latest Report: Apr 19, 2015 at 9:00 AM


Visibility: 28 mi

Pressure: 30.43 "Hg

Humidity: 85%

Dew point: 35 °F

Location of LondonderryLocation

Historic Weather in Londonderry — Graph

°F

Londonderry temperature yesterday

Maximum temperature yesterday: 57 °F (at 4:00 PM)
Minimum temperature yesterday: 35 °F (at 2:00 AM)
Average temperature yesterday: 46 °F

Past Weeks' High & Low Weather Summary

 TemperatureHumidityPressure
High64 °F (Apr 8, 4:00 PM)99% (Apr 6, 10:00 AM)30.65 "Hg (Apr 6, 10:00 AM)
Low28 °F (Apr 19, 6:00 AM)42% (Apr 10, 4:00 PM)29.62 "Hg (Apr 10, 7:00 PM)
Average46 °F79%30.22 "Hg
* Reported Apr 4 8:00 AM — Apr 19 8:00 AM, Londonderry, Weather by CustomWeather, © 2015

Note: Actual official high and low records may vary slightly from our data, if they occured in-between our weather recording intervals... More about our weather records

Advertising

Londonderry weather history for previous 24 hours

 ConditionsComfort  
Time TempWeatherWind HumidityBarometerVisibility
8:00 AM
Sun, Apr 19
31 °FChilly.2 mph93%30.43 "Hg25 mi
7:00 AM29 °FChilly.1 mph94%30.42 "Hg22 mi
6:00 AM28 °FChilly.1 mph93%30.42 "Hg22 mi
5:00 AM29 °FChilly.1 mph93%30.42 "Hg25 mi
4:00 AM30 °FChilly.1 mph91%30.42 "Hg25 mi
3:00 AM32 °FChilly.2 mph87%30.43 "Hg31 mi
2:00 AM33 °FChilly.6 mph85%30.43 "Hg28 mi
1:00 AM32 °FChilly.1 mph89%30.43 "Hg22 mi
12:00 AM35 °FChilly.1 mph86%30.43 "Hg25 mi
11:00 PM
Sat, Apr 18
39 °FChilly.3 mph75%30.43 "Hg14 mi
10:00 PM43 °FQuite cool.5 mph60%30.43 "Hg31 mi
9:00 PM46 °FCool.7 mph56%30.42 "Hg31 mi
8:00 PM51 °FCool.7 mph52%30.41 "Hg31 mi
7:00 PM53 °FCool.13 mph48%30.39 "Hg25 mi
6:00 PM55 °FRefreshingly cool.13 mph48%30.39 "Hg22 mi
5:00 PM57 °FRefreshingly cool.12 mph49%30.39 "Hg28 mi
4:00 PM57 °FSmoke.13 mph49%30.40 "Hg2 mi
3:00 PM57 °FRefreshingly cool.12 mph48%30.41 "Hg22 mi
2:00 PM55 °FRefreshingly cool.13 mph52%30.43 "Hg25 mi
1:00 PM54 °FCool.14 mph50%30.43 "Hg25 mi
12:00 PM53 °FCool.16 mph64%30.44 "Hg25 mi
11:00 AM50 °FCool.16 mph68%30.44 "Hg25 mi
10:00 AM49 °FCool.14 mph70%30.44 "Hg19 mi
9:00 AM48 °FCool.7 mph78%30.45 "Hg19 mi
Weather by CustomWeather, © 2015

See weather overviewHow to use our weather pages